Location: Newark
(45.4422°N, 16.2769°E)
Time: 19:40:12
(UTC+00:00)

Vanguard 2 - Pass Details

Date: 08 December 2019
Orbit: 553 x 2938 km, 32.9° (Epoch: 25 January)

Event Time Altitude Azimuth Distance (km) Brightness Sun altitude
Rises 03:06:53 0° 253° (WSW) 6,573 - -33.2°
Reaches altitude 10° 03:11:14 10° 249° (WSW) 5,686 - -32.4°
Exits shadow 03:19:38 33° 234° (SW) 4,140 10.7 -30.9°
Maximum altitude 03:28:09 53° 180° (S) 3,277 10.5 -29.5°
Drops below altitude 10° 03:42:20 10° 110° (ESE) 4,842 12.5 -27.0°
Sets 03:45:42 0° 106° (ESE) 5,575 13.2 -26.4°
